GFSFLT1_700_rhum_036.txt.gz
RH
37 33 40 48 48 56 66 73 70 62 61 67 71 70 64 44 44 48 44 53 53 56 60 55 57 41 44 48 47 48 44 40
34 32 32 39 48 49 52 59 69 66 68 70 72 71 64 47 54 50 46 42 36 50 59 48 40 49 57 57 51 51 47 42
44 37 40 36 43 59 58 63 67 67 77 73 66 69 51 48 47 40 36 38 52 52 44 41 57 66 69 65 59 54 47 39
49 46 51 44 39 46 58 68 70 69 75 75 55 51 48 43 42 41 45 48 50 48 45 61 77 82 82 65 59 51 41 34
51 51 56 56 53 59 57 61 58 68 70 68 53 51 47 46 46 52 57 58 58 67 74 69 69 73 75 66 60 50 39 36
48 50 55 60 57 75 82 68 62 64 65 60 53 51 48 49 53 59 67 71 68 79 79 88 97 95 91 80 68 45 38 35
61 66 61 60 76 76 75 58 56 56 63 54 54 52 51 53 55 63 69 72 80 91 98 100 99 96 95 67 50 38 36 31
59 66 69 75 72 70 56 54 54 57 54 56 55 54 53 56 64 70 74 80 97 100 98 88 98 99 82 44 42 30 38 39
64 72 73 77 75 56 52 48 53 54 56 59 57 59 62 71 75 82 96 100 96 96 98 99 100 98 92 66 27 36 44 21
48 62 68 68 58 48 58 54 55 54 59 63 62 67 77 80 90 98 100 100 98 99 100 100 98 98 93 34 37 52 18 8
62 66 53 44 49 59 67 60 57 57 61 67 67 74 82 88 98 99 100 98 100 99 98 99 99 96 70 50 47 51 13 9
31 20 16 20 28 39 58 63 64 65 66 70 74 77 84 96 99 98 96 99 85 98 100 98 100 92 41 39 51 58 16 17
25 20 18 25 34 43 41 48 54 66 74 80 79 88 98 100 98 99 93 93 100 99 100 93 89 67 32 48 56 20 28 20
31 51 56 60 62 68 71 65 72 79 83 77 80 76 97 97 98 73 74 98 83 97 94 98 89 55 70 74 61 83 32 28
59 65 70 72 77 76 81 78 80 81 80 79 76 99 98 100 86 87 84 87 98 98 98 96 80 75 89 68 92 62 70 49
48 61 73 72 77 83 86 87 95 94 86 73 78 94 99 84 77 98 96 96 88 97 99 99 92 94 95 95 90 65 39 34
45 46 44 44 70 86 87 88 82 87 84 83 100 100 100 99 96 99 91 100 99 99 98 94 95 95 90 78 38 29 37 46
24 25 28 32 50 59 62 56 61 62 77 83 96 100 96 79 96 86 90 100 97 95 91 92 91 76 40 25 26 34 49 54
33 31 30 36 38 41 40 48 64 74 84 98 100 100 99 99 98 100 100 96 94 96 92 71 52 41 24 23 26 36 46 48

GFSFLT1_700_rhum_039.txt.gz
RH
41 41 42 46 50 54 60 64 59 57 67 67 68 72 71 65 54 52 54 62 56 60 71 72 77 65 47 54 63 60 54 54
33 39 42 44 41 43 49 57 59 65 70 72 74 71 73 74 64 61 63 59 54 58 57 69 66 50 46 60 58 57 62 54
29 29 31 36 43 43 47 51 61 68 70 77 80 80 77 64 56 51 52 54 42 44 49 52 52 45 57 57 65 69 74 63
48 44 46 45 44 44 51 56 64 69 75 72 77 75 59 58 56 51 50 47 49 50 52 54 50 57 61 69 70 67 70 77
59 48 46 51 51 53 62 67 63 66 64 66 70 73 61 68 56 46 47 49 50 51 58 64 65 68 65 69 94 70 82 69
57 56 56 63 57 60 70 79 68 66 67 66 72 62 56 65 52 49 47 50 54 61 71 76 82 91 94 99 93 80 82 64
46 49 55 56 58 57 64 77 80 76 59 65 67 60 57 59 52 50 53 59 67 73 81 89 84 92 99 96 90 95 75 58
48 52 52 56 59 60 74 79 74 67 61 67 61 64 64 65 57 55 60 69 77 86 90 89 99 99 97 98 100 96 85 91
54 57 57 58 55 58 72 69 68 65 60 55 56 65 60 66 73 64 70 93 97 98 98 99 99 98 99 96 99 96 74 26
42 51 65 76 70 68 76 63 66 55 51 54 57 63 65 67 76 89 100 99 100 98 99 94 99 99 96 99 97 93 68 69
41 45 61 80 79 58 52 58 50 52 56 59 61 68 70 73 94 99 100 99 99 99 99 100 99 84 97 99 99 71 59 84
24 22 21 19 19 24 30 29 28 33 46 53 56 60 62 73 89 96 99 99 88 94 86 88 98 99 100 99 96 72 87 78
19 23 25 28 31 32 61 60 65 66 70 74 73 74 79 95 100 90 98 88 99 89 100 100 98 98 99 98 94 86 89 76
28 34 48 60 63 54 72 77 84 85 80 79 76 79 80 81 94 99 97 85 91 99 99 97 99 99 97 95 93 93 92 90
40 52 54 53 66 61 66 72 78 87 78 84 81 86 79 89 95 98 81 95 98 100 97 99 99 99 96 90 94 87 88 74
39 40 47 47 56 65 60 72 79 81 84 80 72 87 82 97 96 83 99 89 96 100 100 98 96 94 96 94 85 72 40 30
36 38 42 43 48 47 54 74 74 78 75 84 84 84 92 98 99 99 98 100 100 100 97 96 95 94 89 69 53 37 29 22
36 27 26 32 34 38 38 41 45 44 54 73 80 94 99 99 99 98 99 99 98 95 95 90 80 65 58 45 36 21 15 17
26 31 40 45 50 50 52 51 50 56 66 73 81 100 100 100 100 99 100 97 95 94 77 71 49 44 42 25 14 14 16 19

GFSFLT1_700_rhum_042.txt.gz
RH
39 49 54 57 64 66 65 62 59 62 63 66 69 72 75 76 64 60 57 65 74 84 76 73 85 89 67 54 59 61 68 68
42 40 45 48 50 49 58 54 62 64 67 74 77 85 87 80 76 77 70 78 83 88 63 72 77 71 58 56 57 65 70 60
36 36 36 37 42 42 42 47 56 68 72 74 75 79 79 71 61 73 75 77 83 77 58 60 66 61 58 58 62 69 58 62
40 34 33 40 42 40 44 48 54 61 65 66 65 68 72 67 83 90 77 72 69 56 53 60 62 60 63 65 62 62 60 80
54 53 46 52 62 63 60 58 63 61 59 56 62 70 73 79 91 92 76 61 53 51 51 54 55 59 65 66 69 78 91 91
47 49 58 61 67 64 66 64 73 70 65 64 68 69 79 80 86 79 73 54 47 47 53 58 65 71 75 78 83 94 100 83
45 52 61 69 64 63 59 57 59 64 72 72 67 70 74 75 82 74 67 55 50 55 62 68 72 75 82 92 97 98 99 78
38 46 50 57 64 66 64 60 65 71 74 72 66 73 76 73 75 72 74 62 57 60 66 71 82 79 90 98 99 100 83 80
38 45 56 62 62 65 63 62 75 78 76 70 67 70 69 70 72 77 77 72 75 78 76 83 98 87 99 96 87 90 68 87
40 48 58 61 62 57 61 72 81 74 78 68 58 70 64 69 78 84 82 83 86 83 99 81 99 84 86 71 96 95 93 95
45 45 44 54 53 53 62 57 59 65 63 62 58 58 66 68 66 59 60 74 88 67 86 88 91 89 73 82 97 99 96 97
34 36 28 17 16 16 27 32 42 42 40 39 43 46 57 71 80 84 74 77 79 86 96 100 100 90 97 99 89 88 96 88
14 16 23 27 31 36 43 42 50 64 71 70 71 77 86 89 88 76 68 71 87 99 100 99 99 93 99 98 98 97 89 88
25 26 30 43 60 69 80 67 57 80 84 78 88 88 83 85 86 87 80 91 97 97 99 99 96 93 93 99 95 92 89 89
27 28 30 52 67 61 58 57 60 67 69 78 87 90 94 84 91 90 85 97 89 99 79 99 100 98 96 93 93 90 94 75
30 36 47 44 46 48 51 53 56 61 68 73 82 84 84 86 85 91 100 88 90 78 89 99 97 96 95 90 90 89 70 45
34 36 38 40 43 39 32 36 36 34 49 69 49 54 68 80 86 93 92 98 73 100 100 98 95 95 71 68 67 59 42 26
39 38 36 32 25 28 31 34 38 44 45 44 45 64 70 74 92 99 96 98 100 97 99 96 94 74 59 57 48 39 22 16
31 27 26 27 31 36 39 44 46 46 49 57 66 73 86 100 99 98 100 99 97 97 96 94 74 61 53 48 37 20 18 20

GFSFLT1_700_rhum_048.txt.gz
RH
57 53 47 42 42 50 47 46 42 38 36 34 31 27 28 40 55 56 55 60 70 74 74 79 70 57 54 55 63 55 54 58
50 54 55 56 52 46 47 51 57 66 53 53 55 53 63 67 65 64 64 68 70 73 78 70 60 54 55 57 57 55 57 63
45 44 46 50 58 62 62 62 63 65 65 67 71 77 81 82 80 79 77 78 79 81 67 50 54 61 56 54 56 60 64 70
39 39 38 42 43 50 59 67 68 70 73 75 76 77 75 79 79 82 77 77 93 66 53 47 54 52 55 56 61 67 71 76
32 33 35 36 40 47 55 59 62 69 74 75 76 78 79 83 88 95 94 90 81 62 63 54 58 58 55 62 70 81 89 84
44 34 32 35 42 46 49 52 54 56 61 70 78 78 77 78 82 88 87 95 93 83 74 62 68 64 63 70 83 84 86 97
45 49 48 45 47 58 65 61 60 63 67 78 78 77 82 84 87 87 88 89 96 96 92 90 83 84 79 82 91 94 91 96
36 46 51 56 60 62 64 69 74 77 79 84 88 77 83 84 87 86 87 89 86 84 86 92 93 96 95 95 97 99 96 84
34 36 40 50 57 63 69 73 78 82 84 85 89 90 80 86 89 81 81 94 93 81 86 93 96 98 100 91 91 86 99 91
31 35 36 42 55 62 68 72 77 82 87 91 90 89 87 80 84 81 77 97 91 85 94 95 99 99 88 99 93 99 99 98
31 31 33 34 39 51 68 72 79 85 86 86 84 83 85 80 75 66 66 70 74 83 90 98 94 92 99 85 95 98 98 96
33 32 34 36 37 47 64 69 76 70 69 77 52 44 40 42 46 56 57 63 74 99 99 98 99 95 97 98 96 97 98 98
12 11 33 37 37 42 51 58 65 62 48 32 42 49 60 70 76 80 81 88 99 98 100 100 99 89 94 96 100 97 98 97
22 12 13 17 20 22 21 23 27 37 48 54 56 56 59 67 74 75 90 98 99 100 99 99 99 79 94 100 87 98 97 97
30 25 25 27 29 32 34 38 44 51 47 48 46 49 52 56 60 69 80 92 95 97 98 97 79 97 94 98 100 98 96 96
31 30 30 30 31 38 50 63 65 46 44 43 52 60 67 67 78 80 83 85 71 69 82 89 99 99 99 98 95 96 96 96
30 32 30 33 36 40 49 48 48 56 62 44 33 33 35 39 44 47 51 52 61 74 97 90 100 100 95 92 96 96 90 62
32 31 37 38 41 46 51 52 38 27 27 27 30 34 38 43 46 50 56 65 72 100 98 98 95 95 96 95 88 68 57 48
34 34 38 42 42 38 31 29 27 25 26 30 35 40 42 44 47 53 56 59 67 92 99 96 95 90 79 62 42 28 28 31